STARLINK-4400, 53468

Orbit data source: Space-Track

STARLINK-4400, 53468 is a payload satellite owned by SpaceX/Seattle (US) in SSO that was launched on Fri, 12 Aug 2022 UTC via an FALCON 9 launch vehicle from the Air Force Western Test Range (AFWTR). Payload-class satellites include a variety of spacecraft equipped with specific instruments for various scientific and technological missions. These include communications satellites like Starlink; space stations such as the ISS; scientific satellites like the Hubble; Earth observation satellites from companies like Planet Labs, Umbra, and HawkEye 360; GPS; miniature CubeSats for education and research; and military/defense satellites.

Loading next visibility...
Identifier
53468, 2022-099D
Orbit
SSO
Country
Flag of USUS
Related business
Manufacturer
SpaceX/Seattle
Mission
Operational Commercial Communications
Bus & Motor
STARLINK, Unknown motor
Mass
300 kg wet, ~275 kg dry
Launch date (UTC)
2022-08-12 (4 years ago)
Launch vehicle
FALCON 9
Launch site
Air Force Western Test Range (AFWTR)
Object type
Payload
Rocket body
Debris
Shape & HBR
Box + 1 Pan, 10.1 m
Radar Cross Section
13.562 m², Large (>1 m²)

Expand to show TLE details & history
Last TLE update: 8 hours ago

TLE from 8 hours ago
0 STARLINK-4400
1 53468U 22099D   26145.58256262 -.00001396  00000-0 -92731-4 0  9999
2 53468  97.4456 265.5410 0001055 132.5784 227.5532 15.05655841207541
Epoch: 2026-05-25T13:58Z
TLE epoch observation values (Epoch: 2026-05-25T13:58:53.410Z)
Latitude
-0.00005°
Longitude
172.65018°
Altitude
553.056 km
Speed
7.585 km/s
True Right ascension
17h 42m 09s
True Declination
0° 00' 00"
Sunlit
Object was in full shadow at epoch
Visualization orbit readout
Latitude
Unknown
Longitude
Unknown
Altitude
Unknown
Speed
Unknown
Apparent Right ascension
Unknown
Apparent Declination
Unknown
Sunlit
N/A
Visualization observer readout
Local Sidereal Time
06:59:08
Azimuth
Unknown
Elevation
Unknown
Doppler factor
Unknown
Orbital elements
Apogee altitude
547.21 km
Perigee altitude
545.749 km
Semi-major axis
6,924.617 km
Eccentricity
0.00011
Inclination
97.4456°
RAAN
265.541°
Arg. of periapsis
132.5784°
True anomaly
227.54428°
Mean anomaly
227.5532°
Eccentric anomaly
227.54874°
Mean motion
3.7666 °/min
Orbital period
95.58 mins
BSTAR
-0.000092731
Loading maneuver chart data...
Computing Atmospheric mass density...
Loading historical data...
Loading historical data...
Loading historical data...
Loading historical data...
Loading historical data...
Loading historical data...
Loading historical data...

Documentation

Showing up to 5 results
|